OBJECT M, 64887

Orbit data source: Space-Track

You're viewing an Uncataloged Satellite

Recently launched and/or uncataloged satellites may have evolving metadata. Metadata may include but not limited to: Owner, Maufacturer, Bus, Motor, and Mission.

OBJECT M, 64887 is a satellite in SSO that was launched on Fri, 25 Jul 2025 UTC via a SOYUZ-2-1B launch vehicle from the Vostochny Cosmodrome (VOSTO). Unknown objects in Earth's orbit typically refer to objects detected orbiting the Earth but have not yet been identified or cataloged. These objects could be anything from previously untracked satellites, spent rocket stages, debris from satellite collisions, or even natural meteoroids temporarily captured by Earth's gravity.

Loading next visibility...
Identifier
64887, 2025-155M
Orbit
SSO
Country
Flag of TBDTBD
Related business
None
Manufacturer
STTs
Mission
Operational spacecraft
Bus & Motor
CUBESAT 3U, Unknown motor
Mass
3 kg wet, 3 kg dry
Launch date (UTC)
2025-07-25 (1 month ago)
Launch vehicle
SOYUZ-2-1B
Launch site
Vostochny Cosmodrome (VOSTO)
Object type
Unknown
Shape & HBR
Unknown
Radar Cross Section
Small (<0.1 m²)

Expand to show TLE details & history
Last TLE update: 8 hours ago

TLE from 8 hours ago
0 OBJECT M
1 64887U 25155M   25242.91674810  .00024891  00000-0  10565-2 0  9995
2 64887  97.4155 207.6759 0011674 110.3083 249.9409 15.23016609 36488
Epoch: 2025-08-30T22:00Z
TLE epoch observation values (Epoch: 2025-08-30T22:00:07.035Z)
Latitude
-0.00009°
Longitude
-101.69758°
Altitude
502.603 km
Speed
7.611 km/s
True Right ascension
13h 50m 42s
True Declination
0° 00' 00"
Sunlit
Object was in daylight at epoch
Visualization orbit readout
Latitude
Unknown
Longitude
Unknown
Altitude
Unknown
Speed
Unknown
Apparent Right ascension
Unknown
Apparent Declination
Unknown
Sunlit
N/A
Visualization observer readout
Local Sidereal Time
21:38:36
Azimuth
Unknown
Elevation
Unknown
Doppler factor
Unknown
Orbital elements
Apogee altitude
501.732 km
Perigee altitude
485.688 km
Semi-major axis
6,871.847 km
Eccentricity
0.00117
Inclination
97.4155°
RAAN
207.6759°
Arg. of periapsis
110.3083°
True anomaly
249.8153°
Mean anomaly
249.9409°
Eccentric anomaly
249.8781°
Mean motion
3.81007 °/min
Orbital period
94.49 mins
BSTAR
0.0010565
Loading maneuver chart data...
Computing Atmospheric mass density...
Loading historical data...
Loading historical data...
Loading historical data...
Loading historical data...
Loading historical data...
Loading historical data...
Loading historical data...

Documentation

Showing up to 5 results
|